This demonstration page uses our WeatherBlox Daily Observations layout. Learn more.

40.92945, -100.16068

Hourly Observations for January 4, 2017

Temp ( °F °C ) Dew Point ( °F °C ) Humidity (%) Winds ( mph kmh ) Pressure ( in mb ) Visibility ( mi km ) Precip ( " mm )
12:15 am 00:15 Cloudy 9 -12.8 2 -16.8 72 72 NNW 9 15 30.53 1034 10 16.0934 0 0
12:35 am 00:35 Cloudy 9 -12.8 1 -17 71 71 N 12 19 30.5 1033 10 16.0934 0 0
12:55 am 00:55 Cloudy 10 -12.5 1 -17.5 67 67 NNW 9 15 30.53 1034 10 16.0934 0 0
1:15 am 01:15 Cloudy with Light Snow 9 -12.7 1 -17.1 70 70 NNW 9 15 30.53 1034 2 3.21868 0 0
1:35 am 01:35 Cloudy with Light Snow 9 -12.8 2 -16.4 75 75 NNW 7 11 30.53 1034 3 4.82802 0 0
1:55 am 01:55 Cloudy with Light Snow 9 -12.8 3 -16.1 77 77 N 8 13 30.5 1033 5 8.0467 0 0
2:15 am 02:15 Cloudy with Light Snow 9 -13 3 -16 78 78 N 7 11 30.5 1033 3 4.82802 0 0
2:35 am 02:35 Cloudy with Light Snow 9 -12.8 4 -15.6 80 80 N 6 9 30.5 1033 4 6.43736 0 0
2:55 am 02:55 Cloudy with Light Snow 9 -13 4 -15.5 82 82 N 7 11 30.5 1033 2.5 4.02335 0 0
3:15 am 03:15 Cloudy with Light Snow 9 -12.8 4 -15.5 80 80 N 6 9 30.5 1033 2.5 4.02335 0 0
3:35 am 03:35 Cloudy with Light Snow 9 -12.9 4 -15.5 81 81 N 7 11 30.5 1033 3 4.82802 0 0
3:55 am 03:55 Cloudy with Light Snow 9 -12.8 4 -15.5 80 80 NW 8 13 30.53 1034 1.75 2.816345 0 0
4:15 am 04:15 Cloudy with Light Snow 9 -13 4 -15.6 81 81 N 8 13 30.5 1033 2.5 4.02335 0 0
4:35 am 04:35 Cloudy with Light Snow 9 -13 4 -15.4 82 82 N 5 7 30.5 1033 2.5 4.02335 0 0
4:55 am 04:55 Cloudy with Light Snow 8 -13.1 4 -15.6 82 82 N 8 13 30.5 1033 3 4.82802 0 0
5:15 am 05:15 Cloudy with Light Snow 8 -13.1 4 -15.7 81 81 N 6 9 30.5 1033 5 8.0467 0 0
5:35 am 05:35 Cloudy with Light Snow 9 -13 4 -15.5 82 82 N 6 9 30.5 1033 3 4.82802 0 0
5:55 am 05:55 Cloudy with Light Snow 8 -13.1 4 -15.6 82 82 NNE 5 7 30.48 1032 3 4.82802 0 0
6:15 am 06:15 Cloudy with Light Snow 8 -13.5 3 -16 82 82 Calm 30.48 1032 2.5 4.02335 0 0
6:35 am 06:35 Cloudy with Light Snow 8 -13.6 3 -16 82 82 Calm 30.48 1032 4 6.43736 0 0
6:55 am 06:55 Cloudy with Light Snow 8 -13.6 3 -16 82 82 Calm 30.5 1033 3 4.82802 0 0
7:15 am 07:15 Cloudy with Light Snow 8 -13.5 4 -15.7 84 84 Calm 30.5 1033 4 6.43736 0 0
7:35 am 07:35 Cloudy with Light Snow 8 -13.2 4 -15.8 81 81 N 6 9 30.48 1032 3 4.82802 0 0
7:55 am 07:55 Cloudy with Light Snow 8 -13.5 3 -16.1 81 81 NNE 5 7 30.48 1032 7 11.26538 0 0
8:15 am 08:15 Cloudy with Light Snow 8 -13.5 3 -16.1 81 81 Calm 30.48 1032 7 11.26538 0 0
8:35 am 08:35 Cloudy with Light Snow 8 -13.5 3 -16.2 80 80 N 3 6 30.48 1032 5 8.0467 0 0
8:55 am 08:55 Cloudy with Light Snow 8 -13.3 3 -16.2 79 79 N 3 6 30.45 1031 10 16.0934 0 0
9:15 am 09:15 Cloudy with Light Snow 8 -13.2 3 -16.2 78 78 N 3 6 30.45 1031 7 11.26538 0 0
9:35 am 09:35 Cloudy with Light Snow 8 -13.1 3 -16.2 78 78 NNE 3 6 30.45 1031 5 8.0467 0 0
9:55 am 09:55 Cloudy with Light Snow 9 -13 3 -16 78 78 N 3 6 30.45 1031 3 4.82802 0 0
10:15 am 10:15 Cloudy 9 -12.8 3 -16 77 77 NNE 6 9 30.45 1031 7 11.26538 0 0
10:35 am 10:35 Cloudy with Light Snow 9 -13 2 -16.7 74 74 NNE 5 7 30.45 1031 4 6.43736 0 0
10:55 am 10:55 Cloudy with Light Snow 9 -12.9 2 -16.9 72 72 NNE 6 9 30.45 1031 2.5 4.02335 0 0
11:15 am 11:15 Cloudy with Light Snow 9 -12.6 2 -16.4 74 74 NNE 3 6 30.45 1031 4 6.43736 0 0
11:35 am 11:35 Cloudy with Light Snow 9 -12.7 2 -16.6 73 73 Calm 30.45 1031 2.5 4.02335 0 0
11:55 am 11:55 Cloudy with Light Snow 9 -12.7 3 -16.1 76 76 NE 3 6 30.42 1030 1 1.60934 0 0
12:15 pm 12:15 Cloudy with Light Snow 10 -12.5 3 -15.9 76 76 NE 3 6 30.42 1030 2 3.21868 0 0
12:35 pm 12:35 Cloudy with Light Snow 10 -12.5 3 -15.9 76 76 NE 3 6 30.39 1029 1.5 2.41401 0 0
12:55 pm 12:55 Cloudy with Light Snow 10 -12.5 3 -15.9 76 76 NE 3 6 30.33 1027 1.5 2.41401 0 0
1:15 pm 13:15 Cloudy with Light Snow 10 -12.3 4 -15.6 77 77 Calm 30.33 1027 1.25 2.011675 0 0
1:35 pm 13:35 Cloudy with Light Snow 10 -12.1 4 -15.5 76 76 Calm 30.33 1027 1.25 2.011675 0 0
1:55 pm 13:55 Cloudy with Light Snow 10 -12.1 4 -15.4 77 77 Calm 30.3 1026 1.25 2.011675 0 0
2:15 pm 14:15 Cloudy with Light Snow 11 -11.9 4 -15.3 76 76 ENE 3 6 30.3 1026 3 4.82802 0 0
2:35 pm 14:35 Cloudy with Light Snow 11 -11.9 4 -15.3 76 76 ENE 3 6 30.27 1025 3 4.82802 0 0
2:55 pm 14:55 Cloudy with Light Snow 11 -11.7 4 -15.3 75 75 E 3 6 30.27 1025 4 6.43736 0 0
3:15 pm 15:15 Cloudy with Light Snow 11 -11.7 5 -15.2 76 76 NE 5 7 30.27 1025 7 11.26538 0 0
3:35 pm 15:35 Cloudy with Light Snow 11 -11.6 5 -15.2 75 75 ENE 7 11 30.27 1025 7 11.26538 0 0
4:15 pm 16:15 Cloudy with Light Snow 11 -11.6 5 -15.1 76 76 ENE 5 7 30.3 1026 3 4.82802 0 0
4:35 pm 16:35 Cloudy with Light Snow 11 -11.6 5 -14.8 77 77 ENE 6 9 30.3 1026 2.5 4.02335 0 0
4:55 pm 16:55 Cloudy with Light Snow 11 -11.6 6 -14.5 79 79 E 6 9 30.3 1026 2 3.21868 0 0
5:15 pm 17:15 Cloudy with Light Snow 11 -11.7 6 -14.5 80 80 E 6 9 30.27 1025 1.75 2.816345 0 0
5:35 pm 17:35 Cloudy with Light Snow 11 -11.9 6 -14.5 81 81 ENE 7 11 30.27 1025 1.25 2.011675 0 0
5:55 pm 17:55 Cloudy with Light Snow 10 -12 6 -14.2 84 84 ENE 3 6 30.3 1026 2 3.21868 0 0
6:15 pm 18:15 Cloudy with Light Snow 10 -12 6 -14.3 83 83 ENE 3 6 30.3 1026 2 3.21868 0.01 0.254
6:35 pm 18:35 Cloudy with Light Snow 10 -12.1 6 -14.3 84 84 Calm 30.33 1027 1.75 2.816345 0.01 0.254
6:55 pm 18:55 Cloudy with Light Snow 10 -12.1 6 -14.2 85 85 Calm 30.33 1027 1.5 2.41401 0.01 0.254
7:15 pm 19:15 Cloudy with Snow 10 -12.1 6 -14.3 84 84 NNE 3 6 30.33 1027 1.25 2.011675 0 0
7:35 pm 19:35 Cloudy with Snow 10 -12.1 7 -14.1 85 85 Calm 30.33 1027 1 1.60934 0 0
7:55 pm 19:55 Cloudy with Snow 10 -12.1 7 -14.1 85 85 N 3 6 30.33 1027 0.75 1.207005 0 0
8:15 pm 20:15 Cloudy with Light Snow 10 -12.1 6 -14.3 84 84 NNE 5 7 30.33 1027 1 1.60934 0 0
8:35 pm 20:35 Cloudy with Snow 10 -12.5 6 -14.5 85 85 NNE 5 7 30.33 1027 0.75 1.207005 0.01 0.254
8:55 pm 20:55 Cloudy with Light Snow 10 -12.5 6 -14.6 84 84 NNE 5 7 30.33 1027 1.25 2.011675 0.02 0.508
9:15 pm 21:15 Cloudy with Light Snow 10 -12.5 6 -14.6 84 84 NNE 5 7 30.33 1027 1.5 2.41401 0 0
9:35 pm 21:35 Cloudy with Light Snow 9 -12.7 5 -14.9 84 84 NE 3 6 30.3 1026 1.75 2.816345 0 0
9:55 pm 21:55 Cloudy with Light Snow 8 -13.6 4 -15.8 84 84 NNE 3 6 30.36 1028 3 4.82802 0 0
10:15 pm 22:15 Cloudy with Light Snow 6 -14.4 2 -16.4 85 85 N 3 6 30.36 1028 5 8.0467 0.01 0.254
10:35 pm 22:35 Mostly Cloudy with Scattered Snow Showers 5 -15.1 1 -17 86 86 Calm 30.36 1028 7 11.26538 0.01 0.254
10:55 pm 22:55 Partly Cloudy 2 -16.5 -1 -18.5 85 85 NW 3 6 30.39 1029 10 16.0934 0.01 0.254
11:15 pm 23:15 Mostly Cloudy 0 -17.8 -4 -19.8 84 84 Calm 30.39 1029 10 16.0934 0 0
11:35 pm 23:35 Mostly Cloudy with Scattered Snow Showers 0 -17.9 -4 -19.9 84 84 W 3 6 30.42 1030 7 11.26538 0 0
11:55 pm 23:55 Partly Cloudy with Scattered Snow Showers -2 -18.7 -6 -20.9 83 83 WNW 6 9 30.42 1030 7 11.26538 0 0

Powered by AerisWeather